User: anonymous   Login
Location: Austin
(30.3000°N, 97.7500°W)
Time: 00:07:03
(UTC-05:00)
Language:

Tiangong - Orbit

View from above orbital plane
View from above orbital plane
View from above satellite
View from above satellite

Ground track
Ground track

The orbit data is extracted from the following two-line orbital elements,

1 48274U 21035A   24206.41544716  .00019036  00000-0  24127-3 0  9990
2 48274  41.4680 215.7894 0002467 302.3024  57.7575 15.59005596184924
Epoch (UTC): 24 July 2024 09:58:14
Eccentricity: 0.0002467
inclination: 41.4680°
perigee height: 389 km
apogee height: 392 km
right ascension of ascending node: 215.7894°
argument of perigee: 302.3024°
revolutions per day: 15.59005596
mean anomaly at epoch: 57.7575°
orbit number at epoch: 18492

The dashed part of the orbit path shows where the satellite is in the earth's shadow,  

DLR